User: anonymous   Login
Location: Muenchen
(48.1800°N, 11.5800°E)
Time: 22:29:39
(UTC+02:00)
Language:

Tiros 1 - Orbit

View from above orbital plane
View from above orbital plane
View from above satellite
View from above satellite

Ground track
Ground track

The orbit data is extracted from the following two-line orbital elements,

1    29U 60002B   18200.85388994 -.00000146 +00000-0 +93370-5 0  9993
2    29 048.3806 005.2698 0023797 124.6795 235.6364 14.74254879115461
Epoch (UTC): 19 July 2018 20:29:36
Eccentricity: 0.0023797
inclination: 48.3806°
perigee height: 631 km
apogee height: 664 km
right ascension of ascending node: 5.2698°
argument of perigee: 124.6795°
revolutions per day: 14.74254879
mean anomaly at epoch: 235.6364°
orbit number at epoch: 11546

The dashed part of the orbit path shows where the satellite is in the earth's shadow,  

DLR